EHI
0 0 0 0 0 0 0 0 0 0 0 0 0 0 0 0 0 0 0 0 0 0 0 0 0 0 0 0 0 0 0 0 0 0 0 0 0 0 0 0 0 0 0
0 0 0 0 0 0 0 0 0 0 0 0 0 0 0 0 0 0 0 0 0 0 0 0 0 0 0 0 0 0 0 0 0 0 0 0 0 0 0 0 0 0 0
0 0 0 0 0 0 0 0 0 0 0 0 0 0 0 0 0 0 0 0 0 0 0 0 0 0 0 0 0 0 0 0 0 0 0 0 0 0 0 0 0 0 0
0 0 0 0 0 0 0 0 0 0 0 0 0 0 0 0 0 0 0 0 0 0 0 0 0 0 0 0 0 0 0 0 0 0 0 0 0 0 0 0 0 0 0
0 0 0 0 0 0 0 0 0 0 0 0 0 0 0 0 0 0 0 0 0 0 0 0 0 0 0 0 0 0 0 0 0 0 0 0 0 0 0 0 0 0 0
0 0 0 0 0 0 0 0 0 0 0 0 0 0 0 0 0 0 0 0 0 0 0 0 0 0 0 0 0 0 0 0 0 0 0 0 0 0 0 0 0 0 0
0 0 0 0 0 0 0 0 0 0 0 0 0 0 0 0 0 0 0 0 0 0 0 0 0 0 0 0 0 0 0 0 0 0 0 0 0 0 0 0 0 0 0
0 0 0 0 0 0 0 0 0 0 0 0 0 0 0 0 0 0 0 0 0 0 0 0 0 0 0 0 0 0 0 0 0 0 0 0 0 0 0 0 0 0 0
0 0 0 0 0 0 0 0 0 0 0 0 0 0 0 0 0 0 0 0 0 0 0 0 0 0 0 0 0 0 0 0 0 0 0 0 0 0 0 0 0 0 0
0 0 0 0 0 0 0 0 0 0 0 0 0 0 0 0 0 0 0 0 0 0 0 0 0 0 0 0 0 0 0 0 0 0 0 0 0 0 0 0 0 0 0
0 0 0 0 0 0 0 0 0 0 0 0 0 0 0 0 0 0 0 0 0 0 0 0 0 0 0 0 0 0 0 0 0 0 0 0 0 0 0 0 0 0 0
0 0 0 0 0 0 0 0 0 0 0 0 0 0 0 0 0 0 0 0 0 0 0 0 0 0 0 0 0 0 0 0 0 0 0 0 0 0 0 0 0 0 0
0 0 0 0 0 0 0 0 0 0 0 0 0 0 0 0 0 0 0 0 0 0 0 0 0 0 0 0 0 0 0 0 0 0 0 0 0 0 0 0 0 0 0
0 0 0 0 0 0 0 0 0 0 0 0 0 0 0 0 0 0 0 0 0 0 0 0 0 0 0 0 0 0 0 0 0 0 0 0 0 0 0 0 0 0 0
0 0 0 0 0 0 0 0 0 0 0 0 0 0 0 0 0 0 0 0 0 0 0 0 0 0 0 0 0 0 0 0 0 0 0 0 0 0 0 0 0 0 0
0 0 0 0 0 0 0 0 0 0 0 0 0 0 0 0 0 0 0 0 0 0 0 0 0 0 0 0 0 0 0 0 0 0 0 0 0 0 0 0 0 0 0
0 0 0 0 0 0 0 0 0 0 0 0 0 0 0 0 0 0 0 0 0 0 0 0 0 0 0 0 0 0 0 0 0 0 0 0 0 0 0 0 0 0 0
0 0 0 0 0 0 0 0 0 0 0 0 0 0 0 0 0 0 0 0 0 0 0 0 0 0 0 0 0 0 0 0 0 0 0 0 0 0 0 0 0 0 0
0 0 1 1 1 0 0 0 0 0 0 0 0 0 0 0 0 0 0 0 0 0 0 0 0 0 0 0 0 0 0 0 0 0 0 0 0 0 0 0 0 0 0
0 0 1 1 1 0 0 0 0 0 0 0 0 0 0 0 0 0 0 0 0 0 0 0 0 0 0 0 0 0 0 0 0 0 0 0 0 0 0 0 0 0 0
0 0 0 0 0 0 0 0 0 0 0 0 0 0 0 0 0 0 0 0 0 0 0 0 0 0 0 0 0 0 0 0 0 0 0 0 0 0 0 0 0 0 0
0 0 0 0 0 0 0 0 0 0 0 0 0 0 0 0 0 0 0 0 0 0 0 0 0 0 0 0 0 0 0 0 0 0 0 0 0 0 0 0 0 0 0
0 0 0 0 0 0 0 0 0 0 0 0 0 0 0 0 0 0 0 0 0 0 0 0 0 0 0 0 0 0 0 0 0 0 0 0 0 0 0 0 0 0 0
0 0 0 0 0 0 0 0 0 0 0 0 0 0 0 0 0 0 0 0 0 0 0 0 0 0 0 0 0 0 0 0 0 0 0 0 0 0 0 0 0 0 0
0 0 0 0 0 0 0 0 0 0 0 0 0 0 0 0 0 0 0 0 0 0 0 0 0 0 0 0 0 0 0 0 0 0 0 0 0 0 0 0 0 0 0
0 0 0 0 0 0 0 0 0 0 0 0 0 0 0 0 0 0 0 0 0 0 0 0 0 0 0 0 0 0 0 0 0 0 0 0 0 0 0 0 0 0 0
Wind_Speed
4 3 3 3 3 3 2 2 1 2 1 1 1 2 3 2 3 3 2 3 3 3 3 3 3 3 3 3 3 3 3 2 2 3 2 3 4 3 3 3 3 2 2
4 4 4 4 4 4 4 3 2 2 1 0 1 2 2 2 2 2 2 2 2 3 3 3 3 3 3 2 2 3 2 2 2 3 3 3 3 3 3 4 4 4 3
4 4 5 5 5 4 4 3 2 2 2 1 2 3 3 2 2 2 2 2 2 2 2 3 3 4 3 3 3 3 3 3 2 2 3 3 3 3 3 4 5 3 4
5 4 4 5 5 4 4 3 2 1 1 1 2 3 3 3 3 3 3 3 2 2 2 2 2 3 3 3 3 4 4 4 3 2 2 3 3 3 2 3 4 3 4
5 5 4 4 4 4 4 3 2 1 1 2 2 3 3 2 3 4 4 4 3 2 2 2 2 2 2 2 3 3 3 3 3 3 3 3 3 3 3 3 3 4 4
6 5 4 3 4 4 4 3 2 2 1 2 2 2 2 2 4 4 4 3 3 3 2 2 1 1 2 3 5 5 4 3 3 3 3 4 4 4 3 3 3 4 4
6 5 5 4 4 4 4 4 3 2 2 1 1 1 2 2 2 2 3 3 3 3 2 2 2 3 3 2 4 5 5 7 6 4 4 4 4 4 4 4 4 4 5
6 5 5 5 5 4 4 4 3 3 2 2 2 2 2 1 1 1 3 3 3 3 2 2 2 2 3 4 4 4 4 4 5 4 4 5 5 4 4 5 6 6 6
6 6 6 6 6 5 5 4 3 3 2 3 2 2 2 1 2 1 2 2 2 3 2 1 2 1 4 5 4 4 5 5 6 8 9 9 11 12 9 4 4 4 6
6 6 6 6 6 6 5 4 3 3 3 2 2 2 3 2 3 3 2 1 2 3 2 1 1 2 4 5 3 4 5 5 6 7 7 9 8 9 11 6 4 4 5
6 6 6 6 6 5 5 4 3 3 3 3 3 3 3 3 4 5 3 1 2 2 2 1 1 3 5 6 6 4 7 8 6 6 6 5 5 4 4 4 4 4 4
6 6 5 5 5 5 5 4 4 4 4 3 3 3 3 4 4 5 5 5 4 2 3 2 2 5 7 8 7 8 12 10 5 5 5 4 4 4 4 4 5 5 5
6 5 5 5 4 4 5 5 4 4 3 3 3 3 3 2 3 5 6 6 5 3 3 5 6 8 8 7 9 11 9 5 4 4 5 4 4 4 4 4 5 6 7
6 6 5 5 5 5 4 4 4 3 3 3 3 3 3 2 2 2 3 3 4 4 4 5 8 9 7 8 8 7 5 4 4 4 4 4 4 4 4 4 5 5 5
5 5 5 5 5 4 4 4 4 4 4 4 3 3 3 3 4 4 3 2 3 3 3 3 3 4 4 4 4 4 4 3 4 4 4 4 4 4 5 4 4 5 5
4 4 3 3 3 4 4 3 5 5 7 8 6 5 3 5 5 5 5 5 5 5 3 3 4 4 5 4 4 4 4 3 4 4 4 4 5 5 6 5 5 5 6
4 4 3 3 3 4 4 4 3 4 6 7 8 8 8 7 7 6 6 6 6 5 3 4 4 5 5 4 4 4 4 4 3 4 4 5 5 5 5 5 5 6 6
4 4 4 3 3 3 3 4 4 4 4 4 7 10 10 10 9 9 8 4 3 4 4 5 5 5 4 4 4 4 4 4 4 4 4 5 5 5 6 6 6 7 7
3 3 3 3 3 3 3 3 3 4 4 3 3 4 9 9 9 9 7 4 5 5 5 5 5 5 4 4 4 4 4 4 5 4 4 5 5 5 6 6 6 9 8
3 5 4 3 3 3 3 3 3 3 3 3 3 3 3 3 3 4 5 5 5 5 5 5 4 4 4 4 4 4 4 4 5 4 5 5 5 5 6 7 7 7 6
2 3 5 4 3 3 3 3 3 3 3 3 3 3 5 4 5 5 4 5 5 5 5 5 4 4 4 4 4 4 5 5 4 4 5 5 5 6 6 6 7 7 7
2 3 3 3 3 3 2 2 2 3 3 3 2 3 5 4 4 4 4 4 5 4 4 4 4 4 4 4 4 4 5 5 4 4 5 5 5 6 6 6 7 7 7
2 2 2 2 2 3 3 3 3 3 3 3 2 2 3 4 4 4 4 4 4 4 3 4 4 4 4 4 4 4 4 4 4 5 5 6 6 6 6 7 8 9 8
2 2 2 2 2 2 3 3 3 3 3 3 3 3 3 3 3 4 4 3 3 3 3 4 4 6 7 5 4 4 4 5 4 4 6 7 7 7 7 7 8 9 9
2 2 2 2 2 2 2 2 3 3 3 3 3 3 3 3 3 3 3 3 4 4 5 5 4 5 7 8 7 5 6 8 8 6 6 6 8 8 8 9 9 9 10
2 2 2 2 2 2 2 3 3 3 3 3 3 3 3 3 3 3 3 3 3 4 5 4 6 7 8 7 7 8 8 9 9 10 7 6 8 8 9 9 11 10 10
Wind_Direction
161 146 143 150 147 148 126 125 142 135 186 205 59 88 84 79 86 72 38 33 36 28 26 46 35 23 17 8 1 6 7 13 347 321 333 346 357 351 342 332 321 311 299
163 158 162 157 162 167 158 169 177 156 181 204 130 101 90 74 70 77 51 40 37 28 19 26 17 23 19 6 2 1 351 353 9 336 329 337 337 325 334 331 324 322 318
163 166 168 171 171 172 163 163 174 162 174 193 105 92 89 70 56 35 39 25 34 27 19 23 17 22 11 359 1 358 343 345 353 337 322 325 321 326 337 328 326 326 321
167 180 183 176 162 166 161 155 169 155 147 108 93 90 82 65 48 25 17 5 7 14 17 24 28 34 20 360 359 352 350 347 338 332 317 315 311 314 335 327 325 324 313
169 181 183 170 154 152 141 144 144 124 126 109 104 95 80 64 43 35 8 352 353 356 353 356 43 38 19 360 350 339 342 334 330 330 321 322 318 329 317 307 312 308 305
173 176 167 155 141 142 145 149 138 129 107 90 85 86 75 57 64 45 11 344 334 338 338 347 9 357 342 330 322 317 318 321 315 315 310 310 306 310 312 311 309 315 306
169 166 160 156 149 152 158 150 148 150 137 112 110 107 106 95 74 28 347 322 315 321 330 327 325 352 355 326 310 300 293 291 290 285 290 293 298 310 316 314 304 293 283
165 164 160 159 157 155 155 160 168 164 159 162 180 166 140 149 177 316 314 298 294 296 301 311 317 339 349 345 330 324 306 290 279 285 276 284 293 294 285 285 284 289 285
168 167 164 161 160 161 165 168 169 169 170 175 184 175 171 201 216 246 302 294 289 291 288 329 355 358 344 345 334 317 311 307 297 293 294 294 295 295 290 292 292 292 290
168 166 163 163 164 168 172 173 171 172 180 179 188 190 189 192 200 217 244 262 285 290 289 278 325 321 326 333 320 310 305 303 313 310 301 295 289 284 281 265 259 271 279
156 157 158 160 165 169 172 172 170 175 183 195 201 199 197 200 203 207 216 220 261 286 290 285 277 304 307 305 302 285 286 297 298 294 292 291 289 285 278 270 268 261 267
146 151 159 162 170 174 169 175 180 183 190 203 210 218 211 202 197 208 218 225 247 272 285 282 274 293 294 294 291 285 291 299 291 288 287 288 288 289 287 285 284 281 271
147 156 162 165 168 167 172 180 186 189 193 206 208 217 223 209 196 206 219 235 251 258 274 287 288 288 292 289 281 283 289 283 276 278 280 277 274 277 286 289 289 287 288
164 169 173 177 177 179 178 181 186 195 203 212 212 218 222 212 199 201 214 230 249 262 273 284 288 286 280 277 279 275 260 254 262 264 270 275 282 286 285 282 283 286 289
179 178 180 182 181 181 181 188 193 197 196 201 213 211 208 222 215 200 204 225 236 246 273 275 275 276 273 271 270 267 261 263 266 265 270 279 284 287 285 283 281 284 283
190 188 185 180 178 180 183 198 211 208 205 209 211 214 221 217 218 220 224 236 249 256 265 262 264 263 265 268 271 271 268 265 265 269 273 275 278 281 284 283 280 279 280
190 184 180 183 186 193 192 196 211 229 229 231 229 229 231 232 231 234 238 245 255 254 250 254 259 261 262 265 265 265 268 266 268 272 275 274 274 276 279 282 281 279 278
193 191 186 185 191 201 205 206 205 206 219 235 235 233 233 232 232 235 237 243 256 240 238 248 254 258 261 263 266 269 272 277 276 275 276 277 278 278 279 279 278 278 280
194 191 191 188 195 206 211 215 220 221 221 218 212 225 226 227 229 232 223 225 237 243 242 247 251 254 257 261 266 267 269 273 276 277 276 277 276 277 278 277 278 281 281
200 204 198 193 205 214 216 219 224 227 231 227 220 214 197 198 220 225 221 230 239 243 245 249 251 252 254 256 260 265 268 269 271 272 276 277 276 275 277 280 280 282 279
196 199 203 212 217 220 223 225 230 231 234 238 237 218 196 203 220 227 226 227 234 243 248 251 250 251 253 255 256 262 269 271 270 271 273 274 277 279 278 277 277 277 278
207 209 209 216 215 216 223 231 237 242 245 248 249 233 218 221 229 234 236 239 240 240 244 249 252 249 246 248 253 260 264 269 273 277 280 280 280 280 279 278 278 278 276
221 219 223 228 222 222 226 230 233 239 244 244 244 243 228 231 234 236 240 244 245 249 253 254 257 259 257 251 246 247 255 261 264 268 276 280 281 280 278 278 280 283 281
251 242 234 235 234 226 228 235 241 248 251 254 255 249 241 238 242 246 248 248 248 252 256 258 261 265 270 270 260 250 246 255 265 268 273 276 279 279 277 277 278 278 279
259 254 251 247 240 241 245 248 250 253 254 255 259 262 255 249 252 258 258 255 258 260 262 264 263 267 270 272 273 266 266 270 272 276 274 272 272 274 275 276 276 277 276
263 259 257 253 245 243 249 257 260 261 260 258 256 260 263 260 258 260 263 266 271 270 269 267 266 270 273 272 270 269 271 273 273 275 274 272 272 272 274 274 275 274 274